This is the latest recevied weather packets stored in our database for station/object KG2V. If no packets are shown the sender has not sent any weather packets the latest 10 day(s).
| Time | Temp. | Humidity | Pressure | Rain* | Wind** | Luminosity | Snow |
|---|---|---|---|---|---|---|---|
| 1778294615 | 4.44° C | 88% | 1006.6 hPa | 0 mm | - | 0 W/m² | - |
| 1778294313 | 4.44° C | 88% | 1006.6 hPa | 0 mm | - | 0 W/m² | - |
| 1778294010 | 4.44° C | 88% | 1006.6 hPa | 0 mm | - | 0 W/m² | - |
| 1778293707 | 5° C | 87% | 1006.7 hPa | 0 mm | - | 0 W/m² | - |
| 1778293404 | 5° C | 86% | 1006.8 hPa | 0 mm | - | 0 W/m² | - |
| 1778293100 | 5° C | 86% | 1006.6 hPa | 0 mm | - | 0 W/m² | - |
| 1778292798 | 5° C | 86% | 1006.8 hPa | 0 mm | - | 0 W/m² | - |
| 1778292495 | 5° C | 85% | 1006.7 hPa | 0 mm | - | 0 W/m² | - |
| 1778292193 | 5.56° C | 84% | 1006.8 hPa | 0 mm | - | 0 W/m² | - |
| 1778291891 | 5.56° C | 83% | 1006.9 hPa | 0 mm | - | 0 W/m² | - |
| 1778291589 | 5.56° C | 83% | 1006.7 hPa | 0 mm | - | 0 W/m² | - |
| 1778291285 | 6.11° C | 82% | 1006.8 hPa | 0 mm | - | 0 W/m² | - |
| 1778290982 | 6.11° C | 82% | 1006.8 hPa | 0 mm | - | 0 W/m² | - |
| 1778290678 | 6.11° C | 81% | 1006.8 hPa | 0 mm | - | 0 W/m² | - |
| 1778290374 | 6.67° C | 80% | 1006.8 hPa | 0 mm | - | 0 W/m² | - |
| 1778290071 | 6.67° C | 79% | 1006.8 hPa | 0 mm | - | 0 W/m² | - |
| 1778289768 | 6.67° C | 77% | 1006.9 hPa | 0 mm | - | 0 W/m² | - |
| 1778289465 | 6.67° C | 76% | 1006.9 hPa | 0 mm | - | 0 W/m² | - |
| 1778289162 | 7.22° C | 75% | 1006.7 hPa | 0 mm | - | 0 W/m² | - |
| 1778288860 | 6.67° C | 75% | 1006.6 hPa | 0 mm | - | 0 W/m² | - |
| 1778288557 | 7.22° C | 74% | 1006.6 hPa | 0 mm | - | 0 W/m² | - |
| 1778288254 | 7.78° C | 74% | 1006.5 hPa | 0 mm | - | 0 W/m² | - |
| 1778287952 | 7.78° C | 73% | 1006.3 hPa | 0 mm | - | 0 W/m² | - |
| 1778287651 | 7.78° C | 71% | 1006.1 hPa | 0 mm | - | 0 W/m² | - |
| 1778287349 | 8.33° C | 70% | 1006 hPa | 0 mm | - | 0 W/m² | - |
* Rain latest hour (hover to see other rain measurements)
** Current wind speed in m/s (hover to see current wind gust speed)